Location: T�bingen+AIT
(48.5342°N, 9.0700°E)
Time: 23:49:44
(UTC+02:00)

Daily predictions for brighter satellites

Satellite Brightness Start Highest point End
(mag) Time Altitude Azimuth Time Altitude Azimuth Time Altitude Azimuth
Lacrosse 5 3.2 19:45:14 10° WNW 19:49:48 32° N 19:54:22 10° ENE
Abrixas rocket 2.1 19:48:11 10° WSW 19:51:19 78° S 19:54:27 10° E
SJ-6B 4.0 19:48:16 10° ESE 19:51:20 23° ENE 19:54:28 10° NNE
H-2A R/B 3.4 19:50:16 10° S 19:54:08 63° W 19:57:59 10° NNW
YAOGAN 6 3.7 19:51:27 10° SE 19:54:26 25° ENE 19:57:24 10° NNE
COSMOS 2487 3.4 19:52:32 10° SSE 19:55:31 27° ESE 19:58:31 10° NE
Cosmos 1503 Rocket 4.0 19:54:45 10° NNW 20:00:04 76° ENE 20:05:17 10° SSE
BREEZE-M DEB (TANK) 4.4 20:01:33 10° ESE 20:02:21 10° ESE 20:03:18 10° E
CZ-2C R/B 3.7 19:57:57 10° NNE 20:02:35 77° ESE 20:07:05 10° S
Cosmos 2219 Rocket 4.2 20:00:26 10° N 20:03:02 13° NNE 20:05:37 10° ENE
BREEZE-M TANK 3.9 19:51:29 10° W 20:05:51 68° S 20:09:33 12° ESE
SL-16 R/B 2.5 20:00:58 10° NNW 20:06:32 51° NE 20:12:03 10° SE
Cosmos 1992 Rocket 4.3 20:02:29 10° S 20:07:24 43° ESE 20:12:21 10° NE
Cosmos 2333 Rocket 4.2 20:04:42 10° N 20:07:25 13° NNE 20:10:06 10° ENE
Cosmos 1302 Rocket 4.3 20:02:17 10° SSW 20:07:29 75° WNW 20:12:42 10° NNE
Cosmos 1707 2.6 20:03:38 10° N 20:07:30 83° E 20:11:20 10° S
Iridium 51 4.1 20:08:16 10° N 20:11:41 49° E 20:15:03 10° SSE
Cosmos 1626 Rocket 3.6 20:07:25 10° N 20:11:53 89° E 20:16:17 10° S
Cosmos 2322 Rocket 2.4 20:06:34 10° NNW 20:12:10 53° NE 20:17:45 10° SE
USA 186 3.0 20:10:20 12° ESE 20:12:26 22° ENE 20:14:48 10° NNE
Cosmos 1544 Rocket 4.3 20:12:38 10° SSW 20:16:56 57° WNW 20:21:17 10° N
Cosmos 1816 Rocket 4.4 20:14:27 10° S 20:20:35 72° E 20:26:50 10° NNE
HJ-1C 3.3 20:17:15 10° SSE 20:20:37 70° ENE 20:23:58 10° N
CZ-4 R/B 4.4 20:20:03 10° SW 20:22:54 19° W 20:25:44 10° NW
Cosmos 1674 4.0 20:20:27 10° NNE 20:23:35 23° ENE 20:25:15 18° ESE
Envisat 3.1 20:18:36 10° SSE 20:23:41 86° WSW 20:28:49 10° NNW
Cosmos 1939 Rocket 3.3 20:21:12 10° SE 20:25:09 45° ENE 20:29:05 10° N
FREGAT/IRIS 2.6 20:23:23 10° S 20:26:19 79° WSW 20:29:16 10° NNW
In-Cosmos 22 4.2 20:20:52 10° N 20:26:23 67° ENE 20:32:00 10° SSE
Cosmos 1544 3.0 20:24:08 10° S 20:27:50 78° E 20:31:34 10° NNE
SL-24 R/B - RUBIN 2 3.9 20:23:34 10° SSW 20:28:01 43° ESE 20:32:13 10° NE
Iridium 2 3.7 20:26:25 10° N 20:30:11 57° E 20:33:53 10° SSE
Cosmos 2058 Rocket 4.4 20:30:51 18° E 20:31:35 19° E 20:34:46 10° NE
Cosmos 1354 Rocket 4.5 20:26:23 10° NNW 20:31:38 65° WSW 20:36:50 10° S
BREEZE-M DEB (TANK) 4.3 20:16:00 10° W 20:33:26 85° N 20:36:30 19° E
Cosmos 2237 Rocket 4.3 20:32:36 10° N 20:34:32 12° NNE 20:36:27 10° NE
GP-B 3.0 20:31:51 10° N 20:36:19 77° E 20:40:45 10° S
BREEZE-M DEB (TANK) 3.8 20:29:57 10° SSW 20:37:14 27° SSE 20:38:51 21° ESE
USA 267 3.6 20:33:28 10° ENE 20:39:37 42° SE 20:45:45 10° SSW
CZ-2D R/B 3.5 20:36:12 10° S 20:40:05 74° WSW 20:44:00 10° NNW
Cosmos 968 Rocket 3.6 20:37:32 10° NNW 20:42:44 78° WSW 20:47:56 10° SSE
Aureole 2 Rocket 2.9 20:39:36 10° NNW 20:43:12 59° WSW 20:46:31 10° S
Meteor 2-5 Rocket 3.9 20:38:17 10° NNW 20:44:17 82° W 20:50:12 10° S
Timation 2 Rocket 4.4 20:38:59 10° S 20:45:23 44° ESE 20:51:51 10° NE
Spot 2 Rocket 4.2 20:45:21 23° ESE 20:47:39 34° ENE 20:52:10 10° N
Cosmos 1634 Rocket 4.0 20:42:06 10° N 20:48:28 86° E 20:54:44 10° S
NOAA 11 4.2 20:43:46 12° SSE 20:48:43 59° ENE 20:54:05 10° N
Meteor 1-22 Rocket 4.4 20:42:57 10° S 20:48:48 57° E 20:54:30 10° NNE
H-2A R/B 3.2 20:48:39 21° E 20:49:56 24° ENE 20:53:54 10° N
Tsikada Rocket 4.4 20:46:02 10° SSW 20:52:12 67° WNW 20:58:27 10° N
ARGOS 4.0 20:51:49 24° E 20:53:45 31° ENE 20:58:26 10° N
Cosmos 1777 Rocket 4.2 20:49:17 10° NNW 20:54:28 52° ENE 20:57:11 26° SE
COSMOS 2455 3.0 20:49:05 10° S 20:54:52 51° ESE 21:00:41 10° NE
CENTAUR R/B 4.4 20:51:01 10° WNW 20:56:44 28° NNW 21:03:10 10° NE
USA 229 DEB 3.9 20:51:25 10° S 20:57:40 44° ESE 21:04:08 10° NE
USA 229 3.9 20:51:31 10° S 20:57:46 44° ESE 21:04:13 10° NE
Meteor 1-24 Rocket 3.9 20:52:52 10° NNW 20:58:56 90° W 21:04:59 10° S
deb Kosmos-1763 4.0 20:55:13 10° SSW 20:58:57 84° ESE 21:02:43 10° NNE
BREEZE-M DEB (TANK) 4.5 20:54:00 10° W 20:59:12 86° N 21:22:22 10° E
MTI 4.3 21:02:52 10° N 21:06:01 58° WNW 21:09:09 10° SSW
Cosmos 332 Rocket 3.7 21:04:46 10° S 21:09:31 63° ESE 21:14:16 10° NNE
ISS -3.2 21:09:47 10° SW 21:12:21 42° S 21:12:21 42° S
Cosmos 1766 3.3 21:09:35 10° SSW 21:13:31 78° W 21:17:31 10° N
Cosmos 2082 Rocket 4.3 21:10:36 10° WSW 21:15:19 27° NW 21:20:04 10° NNE
USA 234 3.3 21:12:04 30° ESE 21:15:35 75° NNE 21:22:08 10° NW
Nadezhda 4 Rocket 4.4 21:14:43 33° ESE 21:16:09 38° E 21:21:46 10° NNE
Cosmos 1606 Rocket 3.4 21:13:25 10° S 21:17:47 88° E 21:22:14 10° N
Cosmos 2279 Rocket 3.9 21:12:05 10° N 21:18:19 88° E 21:23:35 15° S
Cosmos 1825 Rocket 4.1 21:14:10 10° NNW 21:18:33 59° W 21:22:28 13° S
NOSS 3-1 (C) 3.8 21:13:49 10° S 21:22:41 19° ENE 21:24:41 10° NE
Resurs 01 Rocket 1.5 21:20:16 37° SSE 21:21:59 87° ENE 21:26:26 10° NNW
EO 1 Del DPAF 3.2 21:18:33 10° NNE 21:22:23 81° WNW 21:26:11 10° SSW
Cosmos 2360 Rocket 2.1 21:17:06 10° NNW 21:22:48 80° ENE 21:25:03 38° SE
Cosmos 1726 Rocket 3.4 21:20:11 14° S 21:23:50 84° E 21:28:15 10° N
SL-08 RB Rocket 4.4 21:24:06 36° ENE 21:24:06 36° ENE 21:28:15 10° N
BREEZE-M DEB (TANK) 2.5 21:17:42 10° WSW 21:24:00 83° SSE 21:24:19 71° E
SJ-6B 4.4 21:22:25 10° SSW 21:25:52 32° W 21:29:24 10° NNW
ATLAS 3B R/B 4.4 21:21:27 10° NW 21:26:33 22° N 21:31:31 10° NE
Abrixas rocket 2.7 21:24:29 10° W 21:26:59 53° W 21:26:59 53° W
Cosmos 1758 4.1 21:31:41 38° NE 21:31:41 38° NE 21:34:25 10° NNE
Lacrosse 5 2.8 21:29:03 10° NW 21:33:48 38° NNE 21:35:12 32° NE
Cosmos 371 Rocket 3.4 21:30:57 10° SSW 21:35:50 78° WNW 21:40:44 10° NNE
Cosmos 1607 4.3 21:31:32 10° NNW 21:37:45 51° NE 21:39:17 42° E
SL-16 R/B 4.2 21:37:40 10° N 21:40:35 14° NNE 21:41:56 13° NE
COSMOS 2428 3.0 21:35:16 10° NNW 21:40:51 49° NE 21:41:34 47° E
Cosmos 1238 Rocket 4.2 21:38:12 10° N 21:39:27 22° N 21:39:27 22° N
USA 186 4.1 21:42:01 17° SW 21:43:15 21° W 21:45:36 10° NW
Cosmos 1898 Rocket 4.4 21:41:52 10° N 21:46:14 33° NE 21:46:14 33° NE
Cosmos 2219 Rocket 2.6 21:43:05 10° NNW 21:48:34 45° NE 21:48:52 45° ENE
SL-16 R/B 3.8 21:45:31 10° NW 21:50:22 30° WSW 21:54:49 12° SSW
Cosmos 1626 4.2 21:47:42 10° N 21:49:06 20° NNE 21:49:06 20° NNE
Cosmos 2228 3.4 21:50:47 37° SW 21:52:15 59° WNW 21:56:30 10° N
Thor Agena Rocket 3.4 21:47:42 10° NNE 21:53:02 83° ESE 21:54:23 52° S
Cosmos 2333 Rocket 2.6 21:47:45 10° NNW 21:53:17 45° NE 21:53:27 45° ENE
Cosmos 2322 Rocket 3.9 21:51:06 10° NW 21:55:57 29° WSW 22:00:04 13° SSW
Cosmos 1674 4.4 21:55:46 10° NNW 21:59:12 31° W 22:00:08 27° WSW
MetOp-B 4.0 22:00:26 75° E 22:00:32 75° ENE 22:05:54 10° NNW
Cosmos 2322 3.7 21:56:51 10° NNW 22:02:31 75° WSW 22:03:20 63° S
BREEZE-M R/B 3.1 21:52:53 10° WSW 22:03:33 77° SSE 22:03:48 74° SE
SL-14 R/B 4.4 22:01:53 10° NNW 22:04:37 42° NNW 22:04:37 42° NNW
Cosmos 1953 4.2 22:09:29 24° N 22:09:29 24° N 22:11:11 10° N
Cosmos 2058 Rocket 3.9 22:08:04 40° WSW 22:09:12 50° WNW 22:13:37 10° N
CRYOSAT 2 4.5 22:12:17 73° WNW 22:12:17 73° WNW 22:16:59 10° N
Cosmos 2237 Rocket 3.1 22:15:01 10° NNW 22:19:34 37° NNE 22:19:34 37° NNE
USA 267 3.3 22:18:43 24° NE 22:22:56 75° NNW 22:29:28 10° WSW
ERS-2 4.5 22:25:35 21° NNW 22:25:35 21° NNW 22:26:55 10° NNW
Geosat 4.3 22:24:54 66° NW 22:24:54 66° NW 22:29:16 10° NNW
H-2A R/B 2.5 22:29:18 54° W 22:29:18 54° W 22:33:59 10° NNW
ERS-1 Rocket 3.6 22:32:46 51° NNW 22:32:46 51° NNW 22:36:31 10° NNW
ARGOS 3.9 22:33:20 45° WSW 22:33:49 46° W 22:39:02 10° NNW
Cosmos 1980 4.4 22:30:36 10° NNW 22:35:01 45° NNE 22:35:01 45° NNE
SPOT 1/Viking Rocket 4.4 22:42:10 43° N 22:42:10 43° N 22:45:39 10° NNW
COSMOS 2455 4.1 22:35:24 10° WSW 22:41:00 39° NW 22:46:38 10° NNE
USA 229 DEB 4.3 22:41:59 10° WSW 22:48:32 53° NW 22:55:24 10° NE
USA 229 4.3 22:42:04 10° WSW 22:48:39 54° NW 22:55:30 10° NE
CENTAUR R/B 4.5 22:43:47 10° NW 22:49:51 27° NNE 22:54:02 18° NE
CZ-2C R/B 4.1 22:54:29 43° N 22:54:29 43° N 22:58:17 10° N
Terra 3.7 22:58:06 25° N 22:58:06 25° N 23:00:08 10° N
USA 234 4.0 22:59:25 42° WSW 22:59:25 42° WSW 23:05:05 10° WNW
Resurs 01 Rocket 4.5 22:57:52 10° WSW 22:59:06 11° W 23:00:30 10° WNW
Cosmos 2360 Rocket 4.3 23:02:24 10° WNW 23:06:05 18° W 23:06:50 18° WSW
SJ 16-02 3.9 23:02:32 10° N 23:03:39 17° N 23:03:39 17° N
NOSS 0 Rocket 4.5 23:02:33 10° NNW 23:07:15 54° NW 23:07:15 54° NW
NOSS 3-1 (C) 4.0 23:03:49 10° WSW 23:09:41 54° NNW 23:16:09 10° NE
Lacrosse 5 3.7 23:12:07 10° NW 23:14:23 27° WNW 23:14:23 27° WNW
ATLAS 3B R/B 3.6 23:13:02 10° NW 23:18:45 37° NNE 23:18:45 37° NNE
COSMOS 2428 4.3 23:19:53 10° NW 23:23:35 28° W 23:23:35 28° W
SL-16 R/B 3.7 23:20:37 10° NNW 23:23:48 31° N 23:23:48 31° N
Cosmos 2219 Rocket 3.9 23:27:17 10° NW 23:30:36 28° WNW 23:30:36 28° WNW
Cosmos 2333 Rocket 3.9 23:32:18 10° NW 23:35:28 27° WNW 23:35:28 27° WNW
USA 238 DEB 4.4 23:32:51 10° NW 23:38:26 51° N 23:38:26 51° N
USA 238 4.4 23:32:57 10° NW 23:38:32 51° N 23:38:32 51° N
